Weather Roundup
Issued by NWS

Home | Current Version | Previous Version | Graphics & Text | Print | Product List | Glossary Off
Versions: 1 2 3 4 5 6 7 8 9 10 11 12 13 14 15 16 17 18 19 20 21 22 23 24 25 26 27 28 29 30 31 32 33 34 35 36 37 38 39 40 41 42 43 44 45 46 47 48 49 50

000
NZUS93 KARX 260610
HRRWXR

CURRENT HOURLY OBSERVATIONS ACROSS
MUCH OF THE UPPER MISSISSIPPI VALLEY
NATIONAL WEATHER SERVICE LA CROSSE WI
100 AM CDT FRI AUG 26 2016


...SOUTHEAST MINNESOTA...


CITY           SKY/WX    TMP DP  RH WIND       PRES   REMARKS
ROCHESTER      FAIR      58  56  93 W6        30.16R
ROCHESTER/MAYO FAIR      61  56  82 W5        30.15S
WINONA         FAIR      59  55  88 CALM      30.13S
AUSTIN         FAIR      57  55  94 CALM      30.16R
ALBERT LEA     FAIR      57  57 100 CALM      30.17S
DODGE CENTER   FAIR      55  54  94 W3        30.15F
PRESTON        FAIR      57  55  92 NW6       30.16R
OWATONNA       FAIR      57  54  88 CALM      30.16S
FARIBAULT      FAIR      55  54  94 CALM      30.16R
$$

...ELSEWHERE IN MINNESOTA...


CITY           SKY/WX    TMP DP  RH WIND       PRES   REMARKS
MINNEAPOLIS    FAIR      61  54  77 W3        30.13S
INTNL FALLS    FAIR      46  45  96 CALM      30.07R
DULUTH         CLOUDY    58  54  86 W8        30.08R
RED WING       FAIR      55  54  94 CALM      30.12S
REDWOOD FALLS  FAIR      57  52  83 W3        30.17R
MANKATO        FAIR      59  54  82 CALM      30.16R
WORTHINGTON    FAIR      53  52  96 CALM      30.20R
FAIRMONT       FAIR      57  55  93 CALM      30.17S
$$

...SOUTHWEST WISCONSIN...


CITY           SKY/WX    TMP DP  RH WIND       PRES   REMARKS
LA CROSSE      FAIR      64  60  87 CALM      30.12R
PRAIRIE DU CHI FAIR      61  59  92 CALM      30.12R
BOSCOBEL       FOG       60  59  96 CALM      30.12S VSB 1/2
LONE ROCK      FAIR      58  57  97 CALM      30.12R FOG
PLATTEVILLE    FAIR      62  62 100 W3        30.13S
FORT MC COY    FAIR      55  55  97 CALM      30.13R
CAMP DOUGLAS   FAIR      55  54  95 W7        30.11R
MAUSTON-NEW LI FAIR      59  57  94 CALM      30.11R
VIROQUA        FAIR      59  57  92 NW3       30.13S
WIS DELLS      FAIR      61  58  90 CALM      30.11R
$$

...ELSEWHERE IN WISCONSIN...


CITY           SKY/WX    TMP DP  RH WIND       PRES   REMARKS
MILWAUKEE      FAIR      72  61  68 W7        30.09R
MADISON        FAIR      65  61  87 W5        30.10R
GREEN BAY      FAIR      60  59  96 W8        30.07R
EAU CLAIRE     FAIR      57  55  93 SW3       30.11R
BLACK RVR FLS  FAIR      53  53 100 CALM      30.12R
MEDFORD        FAIR      55  55 100 W5        30.10S
WAUSAU         FAIR      59  55  87 NW7       30.08R
WIS RAPIDS     FAIR      59  56  89 NW5       30.12R
MARSHFIELD     FAIR      57  53  86 W5        30.10S
RICE LAKE      FAIR      52  50  93 CALM      30.14R
$$

...NORTHEAST IOWA...


CITY           SKY/WX    TMP DP  RH WIND       PRES   REMARKS
WATERLOO       FAIR      61  59  93 CALM      30.12R
DUBUQUE        FAIR      63  60  90 W5        30.13S
DECORAH        NOT AVBL
MASON CITY     FAIR      59  57  93 N5        30.17R
CHARLES CITY   NOT AVBL
OELWEIN        NOT AVBL
$$

...ELSEWHERE IN IOWA...


CITY           SKY/WX    TMP DP  RH WIND       PRES   REMARKS
DES MOINES     FAIR      65  63  93 CALM      30.13R
IOWA CITY      FAIR      65  62  90 CALM      30.13S
FORT DODGE     FAIR      61  55  82 N3        30.16S
MARSHALLTOWN   FAIR      61  61 100 NW5       30.13R
CEDAR RAPIDS   FAIR      61  61 100 CALM      30.12R
$$

...NORTHERN ILLINOIS...


CITY           SKY/WX    TMP DP  RH WIND       PRES   REMARKS
CHICAGO-OHARE  MOCLDY    67  63  87 W5        30.10R
CHICAGO-MIDWAY CLOUDY    71  63  75 NW5       30.09R
MOLINE         FAIR      65  62  90 CALM      30.11R
ROCKFORD       FAIR      66  63  90 CALM      30.13R
PEORIA         FAIR      71  67  87 NE5       30.10S
$$

NOTE: "FAIR" INDICATES FEW OR NO CLOUDS BELOW 12,000 FEET WITH NO
SIGNIFICANT WEATHER AND/OR OBSTRUCTIONS TO VISIBILITY. WIND
SPEEDS ARE IN MILES-PER-HOUR.




USA.gov is the U.S. government's official web portal to all federal, state and local government web resources and services.